Location: Eckley Miners' Village
(40.9930°N, 75.8630°W)
Time: 01:32:57
(UTC-04:00)

Vanguard 1 Rocket - Pass Details

Date: 07 March 2026
Orbit: 654 x 4213 km, 34.3° (Epoch: 18 April)

Event Time Altitude Azimuth Distance (km) Brightness Sun altitude
Rises 12:41:49 0° 267° (W) 3,368 10.5 43.5°
Reaches altitude 10° 12:43:57 10° 260° (W) 2,639 10.1 43.4°
Maximum altitude 12:49:49 43° 189° (S) 1,763 13.1 43.2°
Drops below altitude 10° 13:00:13 10° 124° (ESE) 4,641 11.3 42.8°
Sets 13:05:20 0° 119° (ESE) 6,261 11.8 42.5°
